FFT1054 KIND-KCMH

Flight info

Callsign FFT1054
Flight time N/A
Altitude 19000
Route MAREO5 BDOCK
Aircraft A20N/M-SDE2E3FGHIRWXY/LB1

Departure

Time 2026-05-06 01:38
Airport Indianapolis International Airport (KIND)

Arrival

Time N/A
Airport John Glenn Columbus International Airport (KCMH)
Time Latitude Longitude Altitude Speed Heading
2026-05-06 01:03 39.71540 -86.29360 791 ft 0 kts 321°
2026-05-06 01:23 39.71523 -86.29341 791 ft 4 kts 316°
2026-05-06 01:24 39.71504 -86.29316 791 ft 4 kts 309°
2026-05-06 01:24 39.71488 -86.29288 790 ft 4 kts 301°
2026-05-06 01:24 39.71476 -86.29257 790 ft 4 kts 288°
2026-05-06 01:24 39.71471 -86.29224 790 ft 4 kts 260°
2026-05-06 01:25 39.71476 -86.29205 790 ft 0 kts 230°
2026-05-06 01:32 39.71475 -86.29206 790 ft 1 kts 230°
2026-05-06 01:32 39.71465 -86.29221 790 ft 4 kts 229°
2026-05-06 01:32 39.71440 -86.29258 790 ft 7 kts 228°
2026-05-06 01:32 39.71400 -86.29319 790 ft 11 kts 230°
2026-05-06 01:33 39.71337 -86.29401 792 ft 14 kts 213°
2026-05-06 01:33 39.71236 -86.29391 788 ft 15 kts 172°
2026-05-06 01:33 39.71137 -86.29389 790 ft 14 kts 190°
2026-05-06 01:33 39.71043 -86.29446 789 ft 15 kts 218°
2026-05-06 01:34 39.70969 -86.29537 791 ft 16 kts 224°
2026-05-06 01:34 39.70887 -86.29641 792 ft 17 kts 225°
2026-05-06 01:34 39.70796 -86.29759 793 ft 20 kts 225°
2026-05-06 01:34 39.70701 -86.29879 795 ft 18 kts 225°
2026-05-06 01:35 39.70602 -86.30005 793 ft 22 kts 224°
2026-05-06 01:35 39.70486 -86.30152 792 ft 25 kts 225°
2026-05-06 01:35 39.70377 -86.30290 790 ft 22 kts 225°
2026-05-06 01:35 39.70273 -86.30424 791 ft 21 kts 225°
2026-05-06 01:36 39.70183 -86.30537 793 ft 14 kts 220°
2026-05-06 01:36 39.70104 -86.30529 794 ft 13 kts 135°
2026-05-06 01:36 39.70053 -86.30436 795 ft 13 kts 101°
2026-05-06 01:36 39.70108 -86.30337 792 ft 13 kts 42°
2026-05-06 01:37 39.70137 -86.30300 792 ft 1 kts 45°
2026-05-06 01:37 39.70236 -86.30175 792 ft 51 kts 44°
2026-05-06 01:37 39.70702 -86.29583 794 ft 137 kts 44°
2026-05-06 01:37 39.71505 -86.28544 1094 ft 177 kts 45°
2026-05-06 01:38 39.72390 -86.27355 1904 ft 186 kts 42°
2026-05-06 01:38 39.73309 -86.26114 2781 ft 193 kts 43°
2026-05-06 01:38 39.73929 -86.25275 3326 ft 195 kts 43°
2026-05-06 01:38 39.74857 -86.23939 4002 ft 208 kts 49°
2026-05-06 01:39 39.75647 -86.21395 4466 ft 256 kts 77°
2026-05-06 01:39 39.75924 -86.19010 5215 ft 273 kts 83°
2026-05-06 01:39 39.76080 -86.17342 5862 ft 280 kts 84°
2026-05-06 01:39 39.76316 -86.14763 6734 ft 292 kts 85°
2026-05-06 01:40 39.76559 -86.12152 7595 ft 302 kts 85°
2026-05-06 01:40 39.76806 -86.09547 8430 ft 310 kts 85°
2026-05-06 01:40 39.77041 -86.07102 9212 ft 318 kts 85°
2026-05-06 01:40 39.77233 -86.05097 9857 ft 324 kts 85°
2026-05-06 01:41 39.77489 -86.02437 10440 ft 332 kts 85°
2026-05-06 01:41 39.77791 -85.99456 10904 ft 347 kts 86°
2026-05-06 01:41 39.77959 -85.97772 11158 ft 355 kts 84°
2026-05-06 01:41 39.78027 -85.97149 11237 ft 355 kts 86°
2026-05-06 01:42 39.78238 -85.94249 11568 ft 371 kts 86°
2026-05-06 01:42 39.78562 -85.90753 12095 ft 389 kts 84°
2026-05-06 01:42 39.78881 -85.87619 12737 ft 398 kts 84°
2026-05-06 01:42 39.79244 -85.84025 13519 ft 406 kts 84°
2026-05-06 01:43 39.79604 -85.80368 14071 ft 406 kts 84°
2026-05-06 01:43 39.79951 -85.76825 13951 ft 395 kts 85°
2026-05-06 01:43 39.80292 -85.73270 13357 ft 400 kts 85°
2026-05-06 01:43 39.80636 -85.69644 13051 ft 409 kts 85°
2026-05-06 01:44 39.80984 -85.65958 13002 ft 410 kts 85°
2026-05-06 01:44 39.81327 -85.62316 12998 ft 410 kts 85°
2026-05-06 01:44 39.81670 -85.58650 13019 ft 409 kts 85°
2026-05-06 01:44 39.82015 -85.54957 13023 ft 409 kts 85°
2026-05-06 01:45 39.82357 -85.51284 13021 ft 409 kts 85°
2026-05-06 01:45 39.82697 -85.47615 13017 ft 410 kts 85°
2026-05-06 01:45 39.83036 -85.43934 13016 ft 409 kts 85°
2026-05-06 01:45 39.83374 -85.40260 13024 ft 410 kts 85°
2026-05-06 01:46 39.83713 -85.36566 13020 ft 410 kts 85°
2026-05-06 01:46 39.84049 -85.32886 13021 ft 410 kts 85°
2026-05-06 01:46 39.84384 -85.29206 13033 ft 410 kts 85°
2026-05-06 01:46 39.84712 -85.25589 13035 ft 410 kts 85°
2026-05-06 01:47 39.85045 -85.21905 13036 ft 410 kts 85°
2026-05-06 01:47 39.85377 -85.18212 13034 ft 410 kts 85°
2026-05-06 01:47 39.85703 -85.14579 13034 ft 410 kts 85°
2026-05-06 01:47 39.86032 -85.10891 13034 ft 410 kts 85°
2026-05-06 01:48 39.86361 -85.07206 13034 ft 410 kts 85°
2026-05-06 01:48 39.86687 -85.03524 13031 ft 410 kts 85°
2026-05-06 01:48 39.87014 -84.99826 13034 ft 410 kts 85°
2026-05-06 01:48 39.87338 -84.96143 13034 ft 410 kts 85°
2026-05-06 01:49 39.87663 -84.92441 13033 ft 410 kts 85°
2026-05-06 01:49 39.87986 -84.88749 13033 ft 410 kts 85°
2026-05-06 01:49 39.88661 -84.80988 12535 ft 407 kts 85°
2026-05-06 01:50 39.88977 -84.77340 12279 ft 404 kts 85°
2026-05-06 01:50 39.89289 -84.73718 12028 ft 401 kts 85°
2026-05-06 01:50 39.89597 -84.70118 11777 ft 399 kts 85°
2026-05-06 01:50 39.89903 -84.66536 11519 ft 396 kts 85°
2026-05-06 01:51 39.90206 -84.62973 11272 ft 396 kts 85°
2026-05-06 01:51 39.90508 -84.59415 11044 ft 395 kts 86°
2026-05-06 01:51 39.90809 -84.55865 10805 ft 391 kts 86°
2026-05-06 01:51 39.91101 -84.52404 10568 ft 388 kts 86°
2026-05-06 01:52 39.91394 -84.48914 10321 ft 385 kts 86°
2026-05-06 01:52 39.91683 -84.45458 10083 ft 383 kts 86°
2026-05-06 01:52 39.91968 -84.42045 9847 ft 373 kts 86°
2026-05-06 01:52 39.92243 -84.38748 9582 ft 359 kts 87°
2026-05-06 01:53 39.92507 -84.35571 9311 ft 347 kts 87°
2026-05-06 01:53 39.92762 -84.32485 9049 ft 336 kts 87°
2026-05-06 01:53 39.93007 -84.29504 8780 ft 326 kts 87°
2026-05-06 01:53 39.93245 -84.26601 8515 ft 319 kts 88°
2026-05-06 01:54 39.93469 -84.23786 8267 ft 317 kts 89°
2026-05-06 01:54 39.93662 -84.20936 8027 ft 315 kts 89°
2026-05-06 01:54 39.93778 -84.19111 7860 ft 314 kts 90°